Location: Arcueil
(48.7999°N, 2.3326°E)
Time: 18:09:17
(UTC+00:00)

Cosmos 1741 Rocket - Pass Details

Date: 03 February 2023
Orbit: 761 x 781 km, 74.0° (Epoch: 25 March)

Event Time Altitude Azimuth Distance (km) Brightness Sun altitude
Rises 18:30:24 0° 180° (S) 3,247 7.3 -16.5°
Reaches altitude 10° 18:32:52 10° 173° (S) 2,326 6.5 -16.9°
Maximum altitude 18:37:49 42° 104° (ESE) 1,105 4.4 -17.7°
Enters shadow 18:40:12 27° 52° (NE) 1,486 5.0 -18.1°
